Location: Bukovany
(49.8234°N, 14.6297°E)
Time: 17:22:31
(UTC+00:00)

Cosmos 2082 Rocket - Pass Details

Date: 17 November 2025
Orbit: 834 x 851 km, 71.0° (Epoch: 08 December)

Event Time Altitude Azimuth Distance (km) Brightness Sun altitude
Rises 17:46:29 0° 327° (NNW) 3,392 5.8 -24.1°
Reaches altitude 10° 17:49:01 10° 321° (NW) 2,454 5.1 -24.5°
Maximum altitude 17:54:18 44° 251° (WSW) 1,140 3.2 -25.4°
Drops below altitude 10° 17:59:35 10° 180° (S) 2,441 4.6 -26.2°
Sets 18:02:06 0° 174° (S) 3,372 5.3 -26.6°
